Flag for U.S.A. Weather past 2 weeks in Orlando, Florida, U.S.A.

Now
88 °F

Sunny.


Feels Like: 95 °F
Forecast: 75 / 88 °F
Wind: 8 mph from Southwest

Location: Orlando Executive Airport

Current Time: Aug 4, 2015 at 2:01:20 PM

Latest Report: Aug 4, 2015 at 12:53 PM


Visibility: 10 mi

Pressure: 30.08 "Hg

Humidity: 59%

Dew point: 72 °F

Location of OrlandoLocation

Historic Weather in Orlando — Graph

°F

Orlando temperature yesterday

Maximum temperature yesterday: 82 °F (at 5:53 PM)
Minimum temperature yesterday: 75 °F (at 4:53 AM)
Average temperature yesterday: 78 °F

Past Weeks' High & Low Weather Summary

 TemperatureHumidityPressure
High94 °F (Jul 23, 3:53 PM)100% (Jul 23, 5:53 AM)30.09 "Hg (Jul 23, 5:53 AM)
Low73 °F (Aug 2, 1:53 PM)54% (Jul 23, 3:53 PM)29.84 "Hg (Jul 25, 5:00 PM)
Average80 °F86%29.96 "Hg
* Reported Jul 20 12:53 PM — Aug 4 12:53 PM, Orlando, Weather by CustomWeather, © 2015

Note: Actual official high and low records may vary slightly from our data, if they occured in-between our weather recording intervals... More about our weather records

Advertising

Orlando weather history for previous 24 hours

 ConditionsComfort  
Time TempWeatherWind HumidityBarometerVisibility
12:53 PM
Tue, Aug 4
88 °FSunny.8 mph59%30.08 "Hg10 mi
11:53 AM87 °FPassing clouds.8 mph67%30.09 "Hg10 mi
10:53 AM85 °FSunny.9 mph72%30.07 "Hg10 mi
9:53 AM83 °FSunny.12 mph74%30.07 "Hg10 mi
8:53 AM80 °FSunny.10 mph76%30.06 "Hg10 mi
7:53 AM77 °FSunny.7 mph82%30.06 "Hg10 mi
6:53 AM76 °FClear.9 mph88%30.03 "Hg10 mi
5:53 AM77 °FClear.8 mph85%30.02 "Hg10 mi
4:53 AM77 °FPassing clouds.12 mph88%30.00 "Hg10 mi
3:53 AM77 °FClear.8 mph88%29.99 "Hg10 mi
2:53 AM77 °FClear.9 mph90%30.00 "Hg10 mi
1:53 AM77 °FClear.12 mph90%29.99 "Hg10 mi
12:53 AM78 °FClear.7 mph87%30.01 "Hg10 mi
11:53 PM
Mon, Aug 3
78 °FClear.6 mph84%30.02 "Hg10 mi
10:53 PM79 °FPassing clouds.8 mph82%30.01 "Hg10 mi
9:53 PM79 °FPassing clouds.6 mph82%29.99 "Hg10 mi
8:53 PM80 °FOvercast.7 mph81%29.96 "Hg10 mi
7:53 PM80 °FOvercast.8 mph81%29.96 "Hg10 mi
6:53 PM82 °FPartly sunny.12 mph77%29.96 "Hg10 mi
5:53 PM82 °FScattered clouds.14 mph77%29.95 "Hg10 mi
4:53 PM81 °FPartly sunny.14 mph79%29.95 "Hg10 mi
3:53 PM80 °FPartly sunny.15 mph81%29.96 "Hg10 mi
2:53 PM79 °FPartly sunny.16 mph82%29.97 "Hg10 mi
2:03 PM78 °FBroken clouds.16 mph84%29.97 "Hg10 mi
Weather by CustomWeather, © 2015

See weather overviewHow to use our weather pages